Regional Weather Roundup
Issued by NWS

Current Version | Previous Version | Text Only | Print | Product List | Glossary On
Versions: 1 2 3 4 5 6 7 8 9 10 11 12 13 14 15 16 17 18 19 20 21 22 23 24 25 26 27 28 29 30 31 32 33 34 35 36 37 38 39 40 41 42 43 44 45 46 47 48 49 50
000
ASUS44 KJAN 190010
RWRMS

MISSISSIPPI HOURLY WEATHER ROUNDUP
NATIONAL WEATHER SERVICE JACKSON MS
700 PM CDT FRI AUG 18 2017

NOTE: "FAIR: INDICATES FEW OR NO CLOUDS BELOW 12,000 FEET WITH NO
SIGNIFICANT WEATHER AND/OR OBSTRUCTIONS TO VISIBILITY.

MSZ001>002-007>008-010>013-018>021-025>028-034>036-190100-
NORTHWEST MISSISSIPPI

CITY           SKY/WX    TMP DP  RH WIND       PRES   REMARKS
BATESVILLE     FAIR      87  73  62 CALM      29.97S HX  94
CLARKSDALE       N/A     88  77  70 CALM      29.95S HX 100
CLEVELAND      FAIR      90  75  61 CALM      29.94F HX 100
GREENWOOD      CLEAR     86  78  77 CALM      29.95F HX  98
6HR MIN TEMP:  86; 6HR MAX TEMP:  93;

GREENVILLE     PTCLDY    91  75  59 W3        29.94S HX 101
6HR MIN TEMP:  89; 6HR MAX TEMP:  94;

OLIVE BRANCH   PTCLDY   N/A N/A N/A W6        29.95F
OXFORD         FAIR      84  68  58 W3        29.99S
TUNICA           N/A     86  72  62 CALM      29.95F HX  92
WINONA         FAIR      87  76  70 CALM      29.96F HX  97
$$

MSZ003>006-009-014>017-022>024-029>033-037>039-190100-
NORTHEAST MISSISSIPPI

CITY           SKY/WX    TMP DP  RH WIND       PRES   REMARKS
COLUMBUS AFB   CLEAR     87  77  71 W5        29.96S HX  99
6HR MIN TEMP:  87; 6HR MAX TEMP:  91;

STARKVILLE     FAIR      84  73  70 CALM      29.98S HX  91
TUPELO         CLEAR     89  65  44 CALM      29.96S HX  91
6HR MIN TEMP:  88; 6HR MAX TEMP:  92;

$$

MSZ040-058-190100-
CENTRAL MISSISSIPPI

CITY           SKY/WX    TMP DP  RH WIND       PRES   REMARKS
JACKSON INTL   PTCLDY    84  75  74 SE5       29.98F HX  92
6HR MIN TEMP:  79; 6HR MAX TEMP:  93; 6HR PCP:  0.22;

JACKSON HAWKNS CLOUDY    86  79  79 S6        29.98F HX  99
6HR MIN TEMP:  86; 6HR MAX TEMP:  92;

MADISON        FAIR      81  77  89 CALM      29.98S
MERIDIAN KEY   CLOUDY    86  80  82 S6        29.97F HX 101
6HR MIN TEMP:  86; 6HR MAX TEMP:  95;

MERIDIAN NAS   CLOUDY    88  76  67 CALM      29.97F HX  99
6HR MIN TEMP:  88; 6HR MAX TEMP:  93;

RAYMOND          N/A     88  77  70 S5        29.97S HX 100
VICKSBURG VKS  CLEAR     86  79  79 CALM      29.95F HX  99
$$

MSZ059>079-190100-
SOUTH MISSISSIPPI

CITY           SKY/WX    TMP DP  RH WIND       PRES   REMARKS
COLUMBIA       FAIR      79 N/A N/A N5        30.01R
HATTIESBURG    PTCLDY    83  72  69 CALM      30.00R
6HR MIN TEMP:  82; 6HR MAX TEMP:  94; 6HR PCP:  0.07;

LAUREL         FAIR      80  79  96 CALM      29.99S
MCCOMB         MOCLDY    86  72  62 N10G20    30.01R HX  92
6HR MIN TEMP:  86; 6HR MAX TEMP:  92;

NATCHEZ        CLEAR     89  79  72 CALM      29.98F HX 104
6HR MIN TEMP:  89; 6HR MAX TEMP:  92;

PINE BELT      CLEAR     80  74  81 CALM      30.01R
6HR MIN TEMP:  77; 6HR MAX TEMP:  94; 6HR PCP:  0.01;

$$

MSZ080>082-190100-
COASTAL MISSISSIPPI

CITY           SKY/WX    TMP DP  RH WIND       PRES   REMARKS
BAY ST LOUIS   PTCLDY    91  75  59 CALM      29.98R HX 102
BILOXI         TSTM      78  75  91 SW6       29.99F
6HR MIN TEMP:  76; 6HR MAX TEMP:  95; 6HR PCP:  2.03;

PASCAGOULA     CLOUDY    78  73  84 VRB3      30.00F
6HR MIN TEMP:  77; 6HR MAX TEMP:  96; 6HR PCP: TRACE;

GULFPORT       CLOUDY    83  76  79 NE12      29.98R HX  91
6HR MIN TEMP:  83; 6HR MAX TEMP:  96;

$$

LAZ007>009-015>016-023>026-190100-
NORTHEAST LOUISIANA

CITY           SKY/WX    TMP DP  RH WIND       PRES   REMARKS
BASTROP        FAIR      91  76  63 CALM      29.96F HX 103
TALLULAH/VBURG CLEAR     84  74  71 S3        29.96F HX  91
6HR MIN TEMP:  77; 6HR MAX TEMP:  95; 6HR PCP:  0.37;

VIDALIA        FAIR     N/A N/A N/A MISG      29.96F
$$



USA.gov is the U.S. government's official web portal to all federal, state and local government web resources and services.